SCP
0 0 0 0 0 0 0 0 0 0 0 0 0 0 0 0 0 0 0 0 0 0 0 0 0 0 0 0 0 0 0 0 0 0 0 0 0 0 0 0 0 -0 0
0 0 0 0 0 0 0 0 0 0 0 0 0 0 0 0 0 0 0 0 0 0 0 0 0 0 0 0 0 0 0 0 0 0 0 0 0 0 0 0 0 0 0
0 0 0 0 0 0 0 0 0 0 0 0 0 0 0 0 0 0 0 0 0 0 0 0 0 0 0 0 0 0 0 0 0 0 0 0 0 0 0 0 0 0 0
0 0 0 0 0 0 0 0 0 0 0 0 0 0 0 0 0 0 0 0 0 0 0 0 0 0 0 0 0 0 0 0 0 0 0 0 0 0 0 0 0 0 0
0 0 0 0 0 0 0 0 0 0 0 0 0 0 0 0 0 0 0 0 0 0 0 0 0 0 0 0 0 0 0 0 0 0 0 0 0 0 0 0 0 0 0
0 0 0 0 0 0 0 0 0 0 0 0 0 0 0 0 0 0 0 0 0 0 0 0 0 0 0 0 0 0 0 0 0 0 0 0 0 0 0 0 0 0 0
0 0 0 0 0 0 0 0 0 0 0 0 0 0 0 0 0 0 0 0 0 0 0 0 0 0 0 0 0 0 0 0 0 0 0 0 0 0 0 0 0 0 0
0 0 0 0 0 0 0 0 0 0 0 0 0 0 0 0 0 0 0 0 0 0 0 0 0 0 0 0 0 0 0 0 0 0 0 0 0 0 0 0 0 -0 -0
0 0 0 0 0 0 0 0 0 0 0 0 0 0 0 0 0 0 0 0 0 0 0 0 0 0 0 0 0 0 0 0 0 0 0 0 0 0 0 0 0 -0 -0
0 0 0 0 0 0 0 0 0 0 0 0 0 0 0 0 0 0 0 0 0 0 0 0 0 0 0 0 0 0 0 0 0 0 0 0 0 0 0 0 0 -0 -0
0 0 0 0 0 0 0 0 0 0 0 0 0 0 0 0 0 0 0 0 0 0 0 0 0 0 0 0 0 0 0 0 0 0 0 0 0 0 0 0 0 0 0
0 0 0 0 0 0 0 0 0 0 0 0 0 0 0 0 0 0 0 0 0 0 0 0 0 0 0 0 0 0 0 0 0 0 0 0 0 0 0 0 0 0 0
0 0 0 0 0 0 0 0 0 0 0 0 0 0 0 0 0 0 0 0 0 0 0 0 0 0 0 0 0 0 0 0 0 0 0 0 0 0 0 0 0 0 0
0 0 0 0 0 0 0 0 0 0 0 0 0 0 0 0 0 0 0 0 0 0 0 0 0 0 0 0 0 0 0 0 0 0 0 0 0 0 0 0 0 0 0
0 0 0 0 0 0 0 0 0 0 0 0 0 0 0 0 0 0 0 0 0 0 0 0 0 0 0 0 0 0 0 0 0 0 0 0 0 0 0 0 0 0 0
0 0 0 0 0 0 0 0 0 0 0 0 0 0 0 0 0 0 0 0 0 0 0 0 0 0 0 0 0 0 0 0 0 0 0 0 0 0 0 0 0 0 0
0 0 0 0 0 0 0 0 0 0 0 0 0 0 0 0 0 0 0 0 0 0 0 0 0 0 0 0 0 0 0 0 0 0 0 0 0 0 0 0 0 0 -0
0 0 0 0 0 0 0 0 0 0 0 0 0 0 0 0 0 0 0 0 0 0 0 0 0 0 0 0 0 0 0 0 0 0 0 0 0 0 0 0 0 0 0
0 0 0 0 0 0 0 0 0 0 0 0 0 0 0 0 0 0 0 0 0 0 0 0 0 0 0 0 0 0 0 0 0 0 0 0 0 0 0 0 0 0 0
0 0 0 0 0 0 0 0 0 0 0 0 0 0 0 0 0 0 0 0 0 0 0 0 0 0 0 0 0 0 0 0 0 0 0 0 0 0 0 0 0 0 0
0 0 0 0 0 0 0 0 0 0 0 0 0 0 0 0 0 0 0 0 0 0 0 0 0 0 0 0 0 0 0 0 0 0 0 0 0 0 0 0 0 0 0
0 0 0 0 0 0 0 0 0 0 0 0 0 0 0 0 0 0 0 0 0 0 0 0 0 0 0 0 0 0 0 0 0 0 0 0 0 0 -0 -0 -0 -0 0
0 0 0 0 0 0 0 0 0 0 0 0 0 0 0 0 0 0 0 0 0 0 0 0 0 0 0 0 0 0 0 0 0 0 0 0 0 -0 -0 -0 -0 -0 -0
0 0 0 0 0 0 0 0 0 0 0 0 0 0 0 0 0 0 0 0 0 0 0 0 0 0 0 0 0 0 0 0 0 0 -0 -0 -0 -0 -0 -0 -0 -0 -0
0 0 0 0 0 0 0 0 0 0 0 0 0 0 0 0 0 0 0 0 0 0 0 0 0 0 0 -0 -0 -0 -0 -0 -0 -0 -0 -0 -0 -0 -0 -0 -0 -0 -0
0 0 0 0 0 0 0 0 0 0 0 0 0 0 0 0 0 0 0 0 0 0 0 0 0 -0 -0 -0 -0 -0 -0 -0 -0 -0 -0 -0 -0 -0 -0 -0 -0 -0 -0
Wind_Speed_500mb
27 25 26 27 29 33 36 37 40 42 46 49 50 51 54 58 61 64 64 65 68 72 76 83 89 92 96 94 90 85 72 70 78 105 98 88 88 84 91 92 88 85 86
31 34 35 33 34 38 40 41 43 46 48 52 53 55 58 61 64 66 67 66 70 77 82 88 93 93 95 94 87 78 72 75 75 90 99 98 85 92 85 84 90 91 84
38 39 42 41 40 41 43 44 46 48 51 53 55 58 61 63 67 67 67 68 71 79 85 89 91 91 93 90 83 75 72 75 71 79 95 96 89 78 85 88 83 95 95
41 43 45 44 43 45 46 47 49 50 55 56 58 61 64 66 68 69 68 68 74 82 85 87 88 85 83 79 74 71 73 76 78 79 82 90 89 78 56 82 104 80 99
43 44 45 44 45 48 50 51 52 55 58 59 61 64 66 67 70 69 66 69 77 85 86 87 85 79 71 60 62 71 74 76 79 80 75 84 92 87 73 78 75 100 115
45 46 45 44 48 52 52 53 55 57 58 60 63 66 65 67 70 65 64 71 79 82 86 87 83 76 67 60 61 61 63 70 80 83 86 82 74 69 88 98 92 92 112
45 45 44 46 51 52 53 56 55 57 60 63 66 65 66 69 67 65 65 72 77 78 79 81 81 67 65 69 67 65 68 64 65 69 85 96 95 82 86 95 91 93 102
42 42 43 49 53 55 56 55 57 59 61 65 65 65 68 67 64 65 67 71 74 76 75 75 68 68 66 64 71 74 78 80 77 72 76 87 87 88 89 94 98 108 100
41 42 45 50 53 53 53 54 58 61 62 63 64 66 67 66 63 65 68 70 73 76 74 62 70 64 63 60 73 82 85 87 73 73 78 78 79 77 78 86 94 93 92
39 44 48 49 52 52 54 57 59 61 62 63 64 64 64 64 63 65 66 65 72 75 76 71 56 58 59 65 68 80 89 97 91 84 87 90 84 86 77 70 68 74 82
40 45 48 52 54 56 57 58 59 60 60 60 61 61 61 62 66 68 60 56 66 73 74 74 67 61 62 64 66 78 87 80 84 87 86 79 76 73 71 65 63 62 75
44 48 52 55 56 56 56 56 56 57 57 58 60 62 62 65 68 67 50 50 50 60 69 71 74 66 67 65 76 78 68 69 76 77 76 75 74 71 69 69 66 65 66
47 49 52 53 53 54 52 53 51 50 53 56 59 62 67 72 73 70 67 57 51 55 62 67 65 67 76 91 74 71 67 65 66 69 72 72 71 72 70 69 65 64 65
48 49 49 49 49 48 49 48 47 49 51 54 58 62 69 75 75 73 67 67 67 65 68 68 70 82 78 73 69 63 60 57 61 66 69 70 71 70 70 67 69 68 69
46 45 45 43 44 44 43 43 46 47 49 53 57 61 69 75 70 54 57 61 63 63 64 75 75 66 70 68 67 66 63 60 61 66 70 71 71 70 70 67 67 67 66
41 41 39 39 39 41 43 43 43 47 51 55 57 57 62 59 53 52 54 54 54 51 62 65 63 64 64 64 66 68 66 63 62 68 70 69 71 73 75 72 69 66 68
36 34 32 34 37 39 42 47 54 50 51 51 52 54 56 55 50 48 48 45 53 57 53 55 56 59 63 63 65 69 70 64 64 68 71 71 71 74 76 76 74 70 71
29 27 29 31 35 39 44 49 54 59 62 56 46 47 47 50 51 43 39 49 47 42 48 50 54 59 62 63 65 69 68 64 66 71 71 72 71 75 78 78 76 74 73
23 25 27 31 36 42 45 48 50 50 51 52 49 41 41 42 45 40 42 45 46 45 46 50 54 59 61 61 65 67 65 66 70 74 73 74 74 75 79 79 80 76 74
21 23 27 33 38 40 41 44 44 44 44 44 44 47 45 46 45 46 46 48 46 46 48 52 56 61 60 61 66 65 67 68 71 72 75 76 76 76 81 84 82 81 77
20 25 31 34 35 36 37 37 37 39 41 40 41 43 42 43 45 46 46 47 46 47 50 54 59 61 59 62 64 67 68 69 71 75 78 78 80 86 87 89 86 82 79
22 26 27 28 30 31 31 32 35 37 39 41 42 40 41 40 42 44 44 43 42 45 48 54 61 60 58 60 66 69 69 72 74 77 81 83 87 93 97 97 93 89 84
19 21 23 25 24 24 26 30 33 36 38 39 42 43 42 42 42 43 44 42 42 48 48 53 61 61 54 59 64 67 72 73 75 77 83 88 95 99 104 105 102 97 90
16 18 18 19 20 22 25 28 31 34 38 39 40 41 41 42 43 43 44 42 46 50 51 57 63 60 57 64 63 64 68 69 70 76 80 94 103 106 103 100 94 91 87
12 12 14 17 19 22 26 29 31 34 37 38 39 40 42 43 44 44 43 43 50 54 56 60 63 58 59 67 69 66 66 67 67 69 81 94 97 95 90 80 83 80 65
8 11 15 18 22 25 28 31 33 35 38 39 40 42 44 46 46 46 45 47 53 57 59 63 65 55 59 71 77 73 71 71 72 82 81 93 90 81 74 72 69 62 41
Wind_Direction_500mb
257 263 272 279 282 285 292 300 302 302 304 304 306 308 310 312 315 315 317 320 321 321 320 319 319 320 319 318 317 313 303 298 293 297 300 303 303 305 302 307 307 311 310
256 258 269 278 285 285 290 294 297 299 301 300 302 304 304 306 310 312 315 318 319 319 318 318 318 319 317 317 315 308 301 299 296 295 296 301 300 307 310 311 310 311 308
254 262 267 273 282 287 288 290 291 295 300 298 298 298 300 301 306 309 310 314 315 316 317 317 316 317 316 315 313 308 304 303 303 300 298 305 305 307 307 308 306 307 307
256 263 269 274 282 286 287 290 293 295 298 298 295 297 298 298 304 307 307 311 313 314 315 316 315 315 315 314 311 310 309 307 306 300 297 298 303 310 305 305 307 302 305
258 264 273 278 281 286 288 292 293 295 298 297 295 295 296 298 303 304 306 310 312 313 315 314 316 315 315 306 305 304 304 302 301 301 299 298 300 305 304 310 300 300 299
259 269 278 276 282 288 290 292 292 295 295 293 293 295 294 296 300 302 306 309 311 312 315 315 315 317 316 306 302 300 299 299 297 298 299 296 300 303 298 299 300 299 297
261 274 277 282 285 290 290 290 293 294 296 297 296 293 294 297 300 301 304 308 310 312 313 314 314 313 312 312 309 304 302 302 296 295 293 296 301 303 305 303 296 293 290
266 275 285 286 287 288 290 292 294 296 296 295 294 293 294 296 297 300 306 309 310 312 313 313 309 308 309 308 310 308 304 301 305 301 298 298 297 300 297 295 295 292 291
272 282 286 283 284 287 291 294 294 296 295 293 292 292 293 295 297 303 308 310 312 313 312 307 308 310 310 312 307 306 313 314 307 299 295 292 292 292 289 290 287 289 290
282 282 283 285 287 292 294 294 294 292 293 293 293 294 295 297 301 303 309 313 311 313 311 313 309 309 310 310 310 311 306 305 310 309 298 299 300 299 299 295 294 290 291
276 281 287 288 291 293 293 293 294 293 293 294 294 296 298 300 302 307 314 311 311 311 309 313 313 313 313 312 308 302 302 309 303 300 304 307 305 304 306 304 299 290 285
281 286 288 288 290 290 291 293 293 293 293 295 296 297 299 303 307 312 312 310 308 305 309 310 314 317 309 307 308 310 308 304 307 311 314 315 316 315 313 310 308 302 294
284 286 286 287 287 288 290 289 290 293 295 298 299 302 305 307 311 315 318 317 310 309 304 308 308 303 307 310 311 312 310 310 315 318 320 320 321 321 318 317 313 312 306
282 283 284 285 287 288 288 292 297 298 299 299 300 304 307 307 308 314 319 322 314 309 317 313 302 301 304 309 313 314 317 321 323 324 324 324 324 326 325 328 324 322 315
280 282 284 284 285 290 296 298 298 299 299 301 305 306 306 304 310 313 310 308 309 311 307 294 302 310 315 317 319 323 324 326 327 328 329 328 328 329 329 332 329 326 321
278 279 280 284 292 298 300 300 299 298 297 299 300 300 299 297 307 309 308 309 310 301 301 306 312 317 321 323 325 327 327 329 330 329 330 331 331 331 331 332 331 329 324
275 275 284 295 298 300 301 300 300 297 299 303 304 301 299 301 309 313 314 311 292 299 307 310 314 323 326 325 327 329 328 329 330 330 331 332 332 330 331 332 332 329 326
273 284 296 300 301 302 302 302 303 306 310 314 312 309 305 306 309 317 314 312 316 310 313 317 322 328 329 327 328 328 327 329 331 331 332 332 332 330 330 330 329 328 326
281 293 300 302 302 302 304 304 305 309 313 317 319 317 314 313 314 320 319 321 322 322 322 322 327 331 330 329 330 329 328 330 331 332 333 333 333 330 328 328 328 327 326
288 297 303 303 305 306 308 308 309 314 319 323 327 326 327 323 328 327 326 325 326 327 328 326 331 333 332 332 332 331 330 331 332 333 333 333 333 331 329 328 327 323 323
291 299 302 306 308 311 309 310 318 325 327 328 330 330 333 321 327 326 325 324 327 329 330 330 333 334 334 335 334 332 332 332 334 334 333 334 335 332 330 327 325 324 322
294 302 308 311 312 313 315 322 329 329 328 328 330 331 330 327 325 327 328 328 329 331 332 332 335 336 336 337 337 336 334 333 335 334 333 334 333 332 331 328 325 322 317
304 311 312 313 317 320 324 329 328 326 326 328 329 331 332 331 331 332 333 332 330 333 336 336 337 337 338 340 341 338 335 335 335 334 335 334 333 332 330 324 319 313 311
305 309 314 320 322 325 327 328 326 326 327 329 330 331 332 333 335 336 337 335 336 337 339 339 340 339 340 344 341 339 339 337 335 336 337 334 331 327 317 312 312 310 306
307 324 327 323 321 326 328 329 328 328 328 329 331 332 334 335 337 338 338 336 337 338 339 340 340 340 343 345 342 336 335 339 338 337 337 331 322 321 319 318 314 322 312
332 340 327 321 325 329 329 330 331 331 330 330 333 335 335 335 336 337 337 336 338 339 338 339 341 339 342 345 343 341 340 341 343 335 325 329 322 322 324 324 322 325 317
Wind_Speed_850mb
27 25 26 27 29 33 36 37 40 42 46 49 50 51 54 58 61 64 64 65 68 72 76 83 89 92 96 94 90 85 72 70 78 105 98 88 88 84 91 92 88 85 86
31 34 35 33 34 38 40 41 43 46 48 52 53 55 58 61 64 66 67 66 70 77 82 88 93 93 95 94 87 78 72 75 75 90 99 98 85 92 85 84 90 91 84
38 39 42 41 40 41 43 44 46 48 51 53 55 58 61 63 67 67 67 68 71 79 85 89 91 91 93 90 83 75 72 75 71 79 95 96 89 78 85 88 83 95 95
41 43 45 44 43 45 46 47 49 50 55 56 58 61 64 66 68 69 68 68 74 82 85 87 88 85 83 79 74 71 73 76 78 79 82 90 89 78 56 82 104 80 99
43 44 45 44 45 48 50 51 52 55 58 59 61 64 66 67 70 69 66 69 77 85 86 87 85 79 71 60 62 71 74 76 79 80 75 84 92 87 73 78 75 100 115
45 46 45 44 48 52 52 53 55 57 58 60 63 66 65 67 70 65 64 71 79 82 86 87 83 76 67 60 61 61 63 70 80 83 86 82 74 69 88 98 92 92 112
45 45 44 46 51 52 53 56 55 57 60 63 66 65 66 69 67 65 65 72 77 78 79 81 81 67 65 69 67 65 68 64 65 69 85 96 95 82 86 95 91 93 102
42 42 43 49 53 55 56 55 57 59 61 65 65 65 68 67 64 65 67 71 74 76 75 75 68 68 66 64 71 74 78 80 77 72 76 87 87 88 89 94 98 108 100
41 42 45 50 53 53 53 54 58 61 62 63 64 66 67 66 63 65 68 70 73 76 74 62 70 64 63 60 73 82 85 87 73 73 78 78 79 77 78 86 94 93 92
39 44 48 49 52 52 54 57 59 61 62 63 64 64 64 64 63 65 66 65 72 75 76 71 56 58 59 65 68 80 89 97 91 84 87 90 84 86 77 70 68 74 82
40 45 48 52 54 56 57 58 59 60 60 60 61 61 61 62 66 68 60 56 66 73 74 74 67 61 62 64 66 78 87 80 84 87 86 79 76 73 71 65 63 62 75
44 48 52 55 56 56 56 56 56 57 57 58 60 62 62 65 68 67 50 50 50 60 69 71 74 66 67 65 76 78 68 69 76 77 76 75 74 71 69 69 66 65 66
47 49 52 53 53 54 52 53 51 50 53 56 59 62 67 72 73 70 67 57 51 55 62 67 65 67 76 91 74 71 67 65 66 69 72 72 71 72 70 69 65 64 65
48 49 49 49 49 48 49 48 47 49 51 54 58 62 69 75 75 73 67 67 67 65 68 68 70 82 78 73 69 63 60 57 61 66 69 70 71 70 70 67 69 68 69
46 45 45 43 44 44 43 43 46 47 49 53 57 61 69 75 70 54 57 61 63 63 64 75 75 66 70 68 67 66 63 60 61 66 70 71 71 70 70 67 67 67 66
41 41 39 39 39 41 43 43 43 47 51 55 57 57 62 59 53 52 54 54 54 51 62 65 63 64 64 64 66 68 66 63 62 68 70 69 71 73 75 72 69 66 68
36 34 32 34 37 39 42 47 54 50 51 51 52 54 56 55 50 48 48 45 53 57 53 55 56 59 63 63 65 69 70 64 64 68 71 71 71 74 76 76 74 70 71
29 27 29 31 35 39 44 49 54 59 62 56 46 47 47 50 51 43 39 49 47 42 48 50 54 59 62 63 65 69 68 64 66 71 71 72 71 75 78 78 76 74 73
23 25 27 31 36 42 45 48 50 50 51 52 49 41 41 42 45 40 42 45 46 45 46 50 54 59 61 61 65 67 65 66 70 74 73 74 74 75 79 79 80 76 74
21 23 27 33 38 40 41 44 44 44 44 44 44 47 45 46 45 46 46 48 46 46 48 52 56 61 60 61 66 65 67 68 71 72 75 76 76 76 81 84 82 81 77
20 25 31 34 35 36 37 37 37 39 41 40 41 43 42 43 45 46 46 47 46 47 50 54 59 61 59 62 64 67 68 69 71 75 78 78 80 86 87 89 86 82 79
22 26 27 28 30 31 31 32 35 37 39 41 42 40 41 40 42 44 44 43 42 45 48 54 61 60 58 60 66 69 69 72 74 77 81 83 87 93 97 97 93 89 84
19 21 23 25 24 24 26 30 33 36 38 39 42 43 42 42 42 43 44 42 42 48 48 53 61 61 54 59 64 67 72 73 75 77 83 88 95 99 104 105 102 97 90
16 18 18 19 20 22 25 28 31 34 38 39 40 41 41 42 43 43 44 42 46 50 51 57 63 60 57 64 63 64 68 69 70 76 80 94 103 106 103 100 94 91 87
12 12 14 17 19 22 26 29 31 34 37 38 39 40 42 43 44 44 43 43 50 54 56 60 63 58 59 67 69 66 66 67 67 69 81 94 97 95 90 80 83 80 65
8 11 15 18 22 25 28 31 33 35 38 39 40 42 44 46 46 46 45 47 53 57 59 63 65 55 59 71 77 73 71 71 72 82 81 93 90 81 74 72 69 62 41
Wind_Direction_850mb
257 263 272 279 282 285 292 300 302 302 304 304 306 308 310 312 315 315 317 320 321 321 320 319 319 320 319 318 317 313 303 298 293 297 300 303 303 305 302 307 307 311 310
256 258 269 278 285 285 290 294 297 299 301 300 302 304 304 306 310 312 315 318 319 319 318 318 318 319 317 317 315 308 301 299 296 295 296 301 300 307 310 311 310 311 308
254 262 267 273 282 287 288 290 291 295 300 298 298 298 300 301 306 309 310 314 315 316 317 317 316 317 316 315 313 308 304 303 303 300 298 305 305 307 307 308 306 307 307
256 263 269 274 282 286 287 290 293 295 298 298 295 297 298 298 304 307 307 311 313 314 315 316 315 315 315 314 311 310 309 307 306 300 297 298 303 310 305 305 307 302 305
258 264 273 278 281 286 288 292 293 295 298 297 295 295 296 298 303 304 306 310 312 313 315 314 316 315 315 306 305 304 304 302 301 301 299 298 300 305 304 310 300 300 299
259 269 278 276 282 288 290 292 292 295 295 293 293 295 294 296 300 302 306 309 311 312 315 315 315 317 316 306 302 300 299 299 297 298 299 296 300 303 298 299 300 299 297
261 274 277 282 285 290 290 290 293 294 296 297 296 293 294 297 300 301 304 308 310 312 313 314 314 313 312 312 309 304 302 302 296 295 293 296 301 303 305 303 296 293 290
266 275 285 286 287 288 290 292 294 296 296 295 294 293 294 296 297 300 306 309 310 312 313 313 309 308 309 308 310 308 304 301 305 301 298 298 297 300 297 295 295 292 291
272 282 286 283 284 287 291 294 294 296 295 293 292 292 293 295 297 303 308 310 312 313 312 307 308 310 310 312 307 306 313 314 307 299 295 292 292 292 289 290 287 289 290
282 282 283 285 287 292 294 294 294 292 293 293 293 294 295 297 301 303 309 313 311 313 311 313 309 309 310 310 310 311 306 305 310 309 298 299 300 299 299 295 294 290 291
276 281 287 288 291 293 293 293 294 293 293 294 294 296 298 300 302 307 314 311 311 311 309 313 313 313 313 312 308 302 302 309 303 300 304 307 305 304 306 304 299 290 285
281 286 288 288 290 290 291 293 293 293 293 295 296 297 299 303 307 312 312 310 308 305 309 310 314 317 309 307 308 310 308 304 307 311 314 315 316 315 313 310 308 302 294
284 286 286 287 287 288 290 289 290 293 295 298 299 302 305 307 311 315 318 317 310 309 304 308 308 303 307 310 311 312 310 310 315 318 320 320 321 321 318 317 313 312 306
282 283 284 285 287 288 288 292 297 298 299 299 300 304 307 307 308 314 319 322 314 309 317 313 302 301 304 309 313 314 317 321 323 324 324 324 324 326 325 328 324 322 315
280 282 284 284 285 290 296 298 298 299 299 301 305 306 306 304 310 313 310 308 309 311 307 294 302 310 315 317 319 323 324 326 327 328 329 328 328 329 329 332 329 326 321
278 279 280 284 292 298 300 300 299 298 297 299 300 300 299 297 307 309 308 309 310 301 301 306 312 317 321 323 325 327 327 329 330 329 330 331 331 331 331 332 331 329 324
275 275 284 295 298 300 301 300 300 297 299 303 304 301 299 301 309 313 314 311 292 299 307 310 314 323 326 325 327 329 328 329 330 330 331 332 332 330 331 332 332 329 326
273 284 296 300 301 302 302 302 303 306 310 314 312 309 305 306 309 317 314 312 316 310 313 317 322 328 329 327 328 328 327 329 331 331 332 332 332 330 330 330 329 328 326
281 293 300 302 302 302 304 304 305 309 313 317 319 317 314 313 314 320 319 321 322 322 322 322 327 331 330 329 330 329 328 330 331 332 333 333 333 330 328 328 328 327 326
288 297 303 303 305 306 308 308 309 314 319 323 327 326 327 323 328 327 326 325 326 327 328 326 331 333 332 332 332 331 330 331 332 333 333 333 333 331 329 328 327 323 323
291 299 302 306 308 311 309 310 318 325 327 328 330 330 333 321 327 326 325 324 327 329 330 330 333 334 334 335 334 332 332 332 334 334 333 334 335 332 330 327 325 324 322
294 302 308 311 312 313 315 322 329 329 328 328 330 331 330 327 325 327 328 328 329 331 332 332 335 336 336 337 337 336 334 333 335 334 333 334 333 332 331 328 325 322 317
304 311 312 313 317 320 324 329 328 326 326 328 329 331 332 331 331 332 333 332 330 333 336 336 337 337 338 340 341 338 335 335 335 334 335 334 333 332 330 324 319 313 311
305 309 314 320 322 325 327 328 326 326 327 329 330 331 332 333 335 336 337 335 336 337 339 339 340 339 340 344 341 339 339 337 335 336 337 334 331 327 317 312 312 310 306
307 324 327 323 321 326 328 329 328 328 328 329 331 332 334 335 337 338 338 336 337 338 339 340 340 340 343 345 342 336 335 339 338 337 337 331 322 321 319 318 314 322 312
332 340 327 321 325 329 329 330 331 331 330 330 333 335 335 335 336 337 337 336 338 339 338 339 341 339 342 345 343 341 340 341 343 335 325 329 322 322 324 324 322 325 317